STARLINK-36832, 68805

Orbit data source: Space-Track

STARLINK-36832, 68805 is a payload satellite owned by SpaceX/Seattle (US) in SSO that was launched on Thu, 23 Apr 2026 UTC via an FALCON 9 launch vehicle from the Air Force Western Test Range (AFWTR). Payload-class satellites include a variety of spacecraft equipped with specific instruments for various scientific and technological missions. These include communications satellites like Starlink; space stations such as the ISS; scientific satellites like the Hubble; Earth observation satellites from companies like Planet Labs, Umbra, and HawkEye 360; GPS; miniature CubeSats for education and research; and military/defense satellites.

Loading next visibility...
Identifier
68805, 2026-089D
Orbit
SSO
Country
Flag of USUS
Related business
Manufacturer
SpaceX/Seattle
Mission
Operational spacecraft
Bus & Motor
STARLINK V2MO, Unknown motor
Mass
575 kg wet, ~530 kg dry
Launch date (UTC)
2026-04-23 (1 week ago)
Launch vehicle
FALCON 9
Launch site
Air Force Western Test Range (AFWTR)
Object type
Payload
Rocket body
Debris
Shape & HBR
Unknown
Radar Cross Section
RCS unknown

Expand to show TLE details & history
Last TLE update: 8 hours ago

TLE from 8 hours ago
0 STARLINK-36832
1 68805U 26089D   26121.16670139 -.02113989  00000-0 -99052-2 0  9999
2 68805  97.2855 326.5990 0001629 102.6198 175.6103 15.86260771  2440
Epoch: 2026-05-01T04:00Z
TLE epoch observation values (Epoch: 2026-05-01T04:00:03.000Z)
Latitude
-79.1036°
Longitude
88.8129°
Altitude
341.843 km
Speed
7.701 km/s
True Right ascension
00h 31m 42s
True Declination
-79° 02' 08"
Sunlit
Object was in daylight at epoch
Visualization orbit readout
Latitude
Unknown
Longitude
Unknown
Altitude
Unknown
Speed
Unknown
Apparent Right ascension
Unknown
Apparent Declination
Unknown
Sunlit
N/A
Visualization observer readout
Local Sidereal Time
19:18:05
Azimuth
Unknown
Elevation
Unknown
Doppler factor
Unknown
Orbital elements
Apogee altitude
310.739 km
Perigee altitude
308.56 km
Semi-major axis
6,687.787 km
Eccentricity
0.00016
Inclination
97.2855°
RAAN
326.599°
Arg. of periapsis
102.6198°
True anomaly
175.61173°
Mean anomaly
175.6103°
Eccentric anomaly
175.61101°
Mean motion
3.96844 °/min
Orbital period
90.72 mins
BSTAR
-0.0099052
Loading maneuver chart data...
Computing Atmospheric mass density...
Loading historical data...
Loading historical data...
Loading historical data...
Loading historical data...
Loading historical data...
Loading historical data...
Loading historical data...

Documentation

Showing up to 5 results
|